Find OneWeb SL0698

NORAD ID: 61604 Int'l Des: 2024-188 Owner: ONEWEBE Country: UK Constellation: oneweb operational
又名: ONEWEB-0698 spacetrack, celestrak
LEOCIRCULARPOLARONEWEB_TYPE

当前视图

正在加载3D地球...

About OneWeb SL0698

OneWeb SL0698 (NORAD 61604) is a oneweb constellation satellite launched Oct 20, 2024 by ONEWEBE of UK. It operates in LEO, CIRCULAR, POLAR, ONEWEB_TYPE orbit with a mass of 148.00 kg.

即将过境

Passes for default location (London). Set your location on the main map for personalized predictions.

高度历史

Loading altitude history...

两行轨道根数

1 61604U 24188L 26265.70993397 .00000255 00000-0 68381-3 0 9999
2 61604 87.8963 1.6931 0001456 63.1891 296.9386 13.11418387 97257
Epoch: Sep 22, 2026 • Age: 18 hours

当前状态

高度 1228.4 km
远地点 / 近地点 N/A
速度 7.24 km/s
星下点 -26.42°S, 21.8°E
发射日期 Oct 20, 2024
运行时间 1.9 years
类型 internet

技术详情

分类 Payload
质量 148.00 kg
干质量 140.00 kg
长度 1.30 m
直径 1.00 m
跨度 5.00 m
形状 ? Trapezoid+2 pan
制造商 ONEWUS
平台类型 ARROW
阶段状态 In Orbit
所有者/国家 ONEWEBE/UK

Most Searched